When you browse on this site, cookies collect data to enhance your experience and personalize the content and advertising you see.
Visit our Privacy Policy to learn more. By continuing to use the site, you agree to this use of cookies and data.
  • în România
  • Lista ţărilor
  • Pe 7 zile
  • Temperatura apei
  • Meteo pe hartă
  • Widget-uri
  • user-avatar
    Intrare

    Meteo pe oră la Kutaisi

    Astăzi, 20 Septembrie, Vineri

    Timp Temperatura Precipitaţii Vânt Presiune Umiditate
    00:00 +18°C° 0 mm 2 m/s 750 mmHg 83%
    01:00 +18°C° 0 mm 2 m/s 749 mmHg 80%
    02:00 +17°C° 0 mm 2 m/s 749 mmHg 77%
    03:00 +17°C° 0 mm 2 m/s 749 mmHg 74%
    04:00 +17°C° 0 mm 2 m/s 748 mmHg 69%
    05:00 +17°C° 0 mm 2 m/s 748 mmHg 64%
    06:00 +18°C° 0 mm 2 m/s 748 mmHg 58%
    07:00 +21°C° 0 mm 3 m/s 748 mmHg 53%
    08:00 +23°C° 0 mm 4 m/s 747 mmHg 47%
    09:00 +27°C° 0 mm 5 m/s 747 mmHg 41%
    10:00 +29°C° 0 mm 4 m/s 746 mmHg 39%
    11:00 +32°C° 0 mm 4 m/s 745 mmHg 36%
    12:00 +33°C° 0 mm 4 m/s 745 mmHg 34%
    13:00 +32°C° 0 mm 4 m/s 744 mmHg 39%
    14:00 +30°C° 0 mm 4 m/s 744 mmHg 44%
    15:00 +29°C° 0 mm 5 m/s 743 mmHg 48%
    16:00 +27°C° 0 mm 4 m/s 743 mmHg 59%
    17:00 +24°C° 0 mm 3 m/s 743 mmHg 70%
    18:00 +21°C° 0 mm 2 m/s 743 mmHg 81%
    19:00 +21°C° 0.1 mm 1 m/s 744 mmHg 85%
    20:00 +20°C° 0.1 mm 1 m/s 744 mmHg 89%
    21:00 +19°C° 0.1 mm 1 m/s 745 mmHg 93%
    22:00 +19°C° 0.3 mm 1 m/s 745 mmHg 94%
    23:00 +19°C° 0.3 mm 1 m/s 745 mmHg 94%

    Mâine, 21 Septembrie, Sâmbătă

    Timp Temperatura Precipitaţii Vânt Presiune Umiditate
    00:00 +20°C° 0.3 mm 1 m/s 745 mmHg 95%
    01:00 +18°C° 0.7 mm 2 m/s 745 mmHg 96%
    02:00 +18°C° 0.7 mm 2 m/s 745 mmHg 97%
    03:00 +18°C° 0.7 mm 3 m/s 744 mmHg 97%
    04:00 +18°C° 0.8 mm 3 m/s 744 mmHg 97%
    05:00 +17°C° 0.8 mm 3 m/s 745 mmHg 96%
    06:00 +17°C° 0.8 mm 3 m/s 745 mmHg 96%
    07:00 +17°C° 1.2 mm 3 m/s 745 mmHg 96%
    08:00 +16°C° 1.2 mm 3 m/s 745 mmHg 97%
    09:00 +16°C° 1.2 mm 3 m/s 745 mmHg 97%
    10:00 +14°C° 2.2 mm 4 m/s 746 mmHg 97%
    11:00 +14°C° 2.2 mm 5 m/s 747 mmHg 96%
    12:00 +14°C° 2.2 mm 5 m/s 747 mmHg 95%
    13:00 +13°C° 1.1 mm 5 m/s 747 mmHg 94%
    14:00 +13°C° 1.1 mm 4 m/s 748 mmHg 94%
    15:00 +13°C° 1.1 mm 4 m/s 748 mmHg 93%
    16:00 +12°C° 1.4 mm 3 m/s 749 mmHg 93%
    17:00 +12°C° 1.4 mm 3 m/s 749 mmHg 94%
    18:00 +13°C° 1.4 mm 2 m/s 749 mmHg 94%
    19:00 +12°C° 0.6 mm 2 m/s 750 mmHg 94%
    20:00 +12°C° 0.6 mm 2 m/s 751 mmHg 94%
    21:00 +12°C° 0.6 mm 1 m/s 751 mmHg 94%
    22:00 +12°C° 0.3 mm 1 m/s 752 mmHg 94%
    23:00 +12°C° 0.3 mm 1 m/s 752 mmHg 94%

    Poimâine, 22 Septembrie, Duminică

    Timp Temperatura Precipitaţii Vânt Presiune Umiditate
    00:00 +11°C° 0.3 mm 1 m/s 752 mmHg 94%
    01:00 +11°C° 0.2 mm 1 m/s 752 mmHg 94%
    02:00 +11°C° 0.2 mm 1 m/s 752 mmHg 94%
    03:00 +11°C° 0.2 mm 1 m/s 752 mmHg 94%
    04:00 +10°C° 0.1 mm 1 m/s 753 mmHg 93%
    05:00 +10°C° 0.1 mm 1 m/s 753 mmHg 92%
    06:00 +10°C° 0.1 mm 1 m/s 753 mmHg 90%
    07:00 +11°C° 0.1 mm 1 m/s 753 mmHg 88%
    08:00 +12°C° 0.1 mm 1 m/s 753 mmHg 85%
    09:00 +13°C° 0.1 mm 1 m/s 753 mmHg 82%
    10:00 +15°C° 0 mm 1 m/s 753 mmHg 75%
    11:00 +16°C° 0 mm 1 m/s 752 mmHg 69%
    12:00 +18°C° 0 mm 1 m/s 752 mmHg 62%
    13:00 +18°C° 0 mm 2 m/s 752 mmHg 60%
    14:00 +18°C° 0 mm 2 m/s 751 mmHg 57%
    15:00 +19°C° 0 mm 2 m/s 751 mmHg 54%
    16:00 +17°C° 0 mm 2 m/s 751 mmHg 62%
    17:00 +16°C° 0 mm 1 m/s 751 mmHg 69%
    18:00 +14°C° 0 mm 1 m/s 751 mmHg 76%
    19:00 +13°C° 0 mm 1 m/s 752 mmHg 78%
    20:00 +12°C° 0 mm 1 m/s 752 mmHg 79%
    21:00 +12°C° 0 mm 1 m/s 752 mmHg 81%
    22:00 +10°C° 0 mm 2 m/s 752 mmHg 80%
    23:00 +10°C° 0 mm 2 m/s 752 mmHg 79%

    23 Septembrie, Luni

    Timp Temperatura Precipitaţii Vânt Presiune Umiditate
    00:00 +10°C° 0 mm 2 m/s 752 mmHg 77%
    01:00 +10°C° 0 mm 2 m/s 752 mmHg 75%
    02:00 +10°C° 0 mm 2 m/s 752 mmHg 73%
    03:00 +10°C° 0 mm 2 m/s 752 mmHg 70%
    04:00 +10°C° 0 mm 2 m/s 752 mmHg 68%
    05:00 +9°C° 0 mm 2 m/s 752 mmHg 65%
    06:00 +9°C° 0 mm 2 m/s 751 mmHg 63%
    07:00 +13°C° 0 mm 1 m/s 751 mmHg 57%
    08:00 +16°C° 0 mm 1 m/s 751 mmHg 52%
    09:00 +19°C° 0 mm 1 m/s 750 mmHg 46%
    10:00 +21°C° 0 mm 1 m/s 750 mmHg 44%
    11:00 +22°C° 0 mm 1 m/s 750 mmHg 42%
    12:00 +24°C° 0 mm 2 m/s 750 mmHg 39%
    13:00 +24°C° 0 mm 2 m/s 749 mmHg 41%
    14:00 +24°C° 0 mm 2 m/s 749 mmHg 42%
    15:00 +24°C° 0 mm 3 m/s 749 mmHg 44%
    16:00 +20°C° 0 mm 2 m/s 749 mmHg 54%
    17:00 +18°C° 0 mm 2 m/s 749 mmHg 65%
    18:00 +16°C° 0 mm 1 m/s 749 mmHg 76%
    19:00 +15°C° 0 mm 1 m/s 749 mmHg 77%
    20:00 +14°C° 0 mm 1 m/s 749 mmHg 78%
    21:00 +13°C° 0 mm 1 m/s 750 mmHg 80%
    22:00 +13°C° 0 mm 1 m/s 750 mmHg 77%
    23:00 +13°C° 0 mm 2 m/s 750 mmHg 74%

    24 Septembrie, Marţi

    Timp Temperatura Precipitaţii Vânt Presiune Umiditate
    00:00 +13°C° 0 mm 2 m/s 750 mmHg 71%
    01:00 +14°C° 0 mm 2 m/s 750 mmHg 67%
    02:00 +14°C° 0 mm 2 m/s 750 mmHg 64%
    03:00 +14°C° 0 mm 2 m/s 750 mmHg 61%
    04:00 +14°C° 0 mm 2 m/s 749 mmHg 60%
    05:00 +14°C° 0 mm 3 m/s 749 mmHg 59%
    06:00 +14°C° 0 mm 3 m/s 749 mmHg 58%
    07:00 +18°C° 0 mm 3 m/s 749 mmHg 53%
    08:00 +21°C° 0 mm 4 m/s 749 mmHg 49%
    09:00 +23°C° 0 mm 5 m/s 748 mmHg 44%
    10:00 +26°C° 0 mm 5 m/s 748 mmHg 42%
    11:00 +27°C° 0 mm 5 m/s 748 mmHg 40%
    12:00 +29°C° 0 mm 5 m/s 748 mmHg 38%
    13:00 +29°C° 0 mm 5 m/s 747 mmHg 38%
    14:00 +29°C° 0 mm 5 m/s 747 mmHg 38%
    15:00 +29°C° 0 mm 4 m/s 746 mmHg 38%
    16:00 +27°C° 0 mm 4 m/s 746 mmHg 46%
    17:00 +25°C° 0 mm 3 m/s 746 mmHg 54%
    18:00 +21°C° 0 mm 2 m/s 746 mmHg 61%
    19:00 +21°C° 0 mm 2 m/s 747 mmHg 62%
    20:00 +20°C° 0 mm 3 m/s 747 mmHg 62%
    21:00 +19°C° 0 mm 3 m/s 747 mmHg 62%
    22:00 +19°C° 0 mm 3 m/s 747 mmHg 61%
    23:00 +19°C° 0 mm 3 m/s 747 mmHg 60%

    25 Septembrie, Miercuri

    Timp Temperatura Precipitaţii Vânt Presiune Umiditate
    00:00 +19°C° 0 mm 3 m/s 747 mmHg 59%
    01:00 +19°C° 0 mm 3 m/s 747 mmHg 58%
    02:00 +18°C° 0 mm 3 m/s 747 mmHg 57%
    03:00 +18°C° 0 mm 3 m/s 746 mmHg 57%
    04:00 +18°C° 0 mm 3 m/s 746 mmHg 54%
    05:00 +18°C° 0 mm 3 m/s 746 mmHg 52%
    06:00 +18°C° 0 mm 3 m/s 746 mmHg 50%
    07:00 +21°C° 0 mm 3 m/s 746 mmHg 46%
    08:00 +24°C° 0 mm 3 m/s 746 mmHg 42%
    09:00 +27°C° 0 mm 3 m/s 746 mmHg 38%
    10:00 +29°C° 0 mm 3 m/s 746 mmHg 34%
    11:00 +31°C° 0 mm 2 m/s 746 mmHg 30%
    12:00 +34°C° 0 mm 2 m/s 745 mmHg 25%
    13:00 +35°C° 0 mm 2 m/s 745 mmHg 24%
    14:00 +34°C° 0 mm 1 m/s 745 mmHg 22%
    15:00 +34°C° 0 mm 1 m/s 745 mmHg 20%
    16:00 +31°C° 0 mm 1 m/s 745 mmHg 26%
    17:00 +29°C° 0 mm 1 m/s 745 mmHg 31%
    18:00 +26°C° 0 mm 1 m/s 745 mmHg 37%
    19:00 +25°C° 0 mm 2 m/s 745 mmHg 36%
    20:00 +24°C° 0 mm 3 m/s 745 mmHg 34%
    21:00 +24°C° 0 mm 3 m/s 745 mmHg 33%
    22:00 +22°C° 0 mm 3 m/s 745 mmHg 32%
    23:00 +22°C° 0 mm 3 m/s 745 mmHg 31%
    Arată mai mult